Regional Weather Roundup
Issued by NWS

Home | Current Version | Previous Version | Graphics & Text | Print | Product List | Glossary Off
Versions: 1 2 3 4 5 6 7 8 9 10 11 12 13 14 15 16 17 18 19 20 21 22 23 24 25 26 27 28 29 30 31 32 33 34 35 36 37 38 39 40 41 42 43 44 45 46 47 48 49 50

000
ASUS43 KMKX 272211
RWRWI

WISCONSIN REGIONAL WEATHER ROUNDUP
NATIONAL WEATHER SERVICE MILWAUKEE/SULLIVAN WI
500 PM CDT THU APR 27 2017

NOTE: "FAIR" INDICATES FEW OR NO CLOUDS BELOW 12,000 FEET WITH NO
SIGNIFICANT WEATHER AND/OR OBSTRUCTIONS TO VISIBILITY.

WIZ001-002-006>008-014>016-023>028-272300-
NORTHWEST WISCONSIN

CITY           SKY/WX    TMP DP  RH WIND       PRES   REMARKS
SUPERIOR ARPT  CLOUDY    32  22  66 NW10      29.58R WCI  24
ASHLAND        CLOUDY    29  22  75 W13       29.56R WCI  19
HAYWARD        CLOUDY    29  22  75 W8        29.57R WCI  21
SIREN          CLOUDY    31  23  72 NW12      29.61R WCI  22
CUMBERLAND     CLOUDY    30  23  74 NW13      29.59R WCI  20
RICE LAKE      CLOUDY    31  26  80 W9        29.61R WCI  23
CHETEK         CLOUDY    31  27  87 W7        29.60R WCI  24
LADYSMITH      CLOUDY    32  26  77 W14       29.59R WCI  22
EAU CLAIRE     CLOUDY    34  26  72 W15       29.60R WCI  24
MENOMONIE      CLOUDY    35  26  72 W14G21    29.61R WCI  25
NEW RICHMOND   CLOUDY    32  24  72 NW12      29.62R WCI  23
OSCEOLA        CLOUDY    33  24  72 NW9       29.65R WCI  25
$$

WIZ003>005-009-010-017-018-272300-
NORTH CENTRAL WISCONSIN

CITY           SKY/WX    TMP DP  RH WIND       PRES   REMARKS
MANITOWISH WTR NOT AVBL
ARBOR VITAE    CLOUDY    32  27  83 W8        29.50R WCI  25
WOODRUFF       CLOUDY    32  27  83 W8        29.50R WCI  25
RHINELANDER    LGT SNOW  31  26  82 W15       29.52R WCI  20
EAGLE RIVER    CLOUDY    29  24  80 W10       29.49R WCI  20
LAND O LAKES   CLOUDY    30  25  81 W7G16     29.50R WCI  23
PHILLIPS       CLOUDY    28  25  86 W6        29.53R WCI  22
TOMAHAWK       CLOUDY    31  26  82 W8        29.54R WCI  23
MEDFORD        CLOUDY    30  26  86 W12G22    29.55R WCI  21
MERRILL        CLOUDY    33  30  90 W8        29.55R WCI  25
$$

WIZ029-030-035-036-043>047-272300-
CENTRAL WISCONSIN

CITY           SKY/WX    TMP DP  RH WIND       PRES   REMARKS
WAUSAU         LGT SNOW  33  31  92 W15       29.56R FOG     WCI  23
MOSINEE        LGT SNOW  34  32  93 W15G21    29.57R FOG     WCI  24
MARSHFIELD     CLOUDY    34  29  82 W12       29.56R WCI  25
STEVENS POINT  CLOUDY    35  31  86 W7G18     29.58R WCI  29
WAUPACA        CLOUDY    41  33  72 SW14G21   29.60R
WAUTOMA        CLOUDY    40  34  79 W12       29.61R WCI  33
WISC RAPIDS    CLOUDY    38  33  82 W9        29.60R WCI  31
CAMP DOUGLAS   CLOUDY    39  35  87 W14G20    29.61R WCI  31
$$

WIZ011>013-019>022-031-037>040-048>050-272300-
NORTHEAST WISCONSIN

CITY           SKY/WX    TMP DP  RH WIND       PRES   REMARKS
ANTIGO         CLOUDY    32  29  91 W12       29.53R WCI  23
SHAWANO        CLOUDY    39  33  78 W9G16     29.57R WCI  33
OCONTO         CLOUDY    37  32  82 W14G22    29.57R WCI  28
STURGEON BAY   LGT RAIN  37  34  89 W15       29.57R WCI  28
GREEN BAY      CLOUDY    41  35  79 W13G21    29.58R
MANITOWOC      CLOUDY    41  34  76 W13G24    29.61R
APPLETON       PTSUNNY   39  30  70 W14G21    29.57R WCI  31
CLINTONVILLE   LGT RAIN  37  32  81 W10       29.58R WCI  30
OSHKOSH        CLOUDY    40  33  76 W10G17    29.60R WCI  33
$$

WIZ032>034-041-042-053>061-272300-
SOUTHWEST WISCONSIN

CITY           SKY/WX    TMP DP  RH WIND       PRES   REMARKS
LA CROSSE      CLOUDY    41  31  67 W17G24    29.63R
SPARTA         CLOUDY    38  35  86 W12       29.62R WCI  31
VIROQUA        CLOUDY    38  32  79 W13G24    29.62R WCI  30
BOSCOBEL       LGT RAIN  42  34  73 SW10G20   29.66R
PRAIRIE DU CHI CLOUDY    40  30  66 W13G21    29.67R WCI  33
PLATTEVILLE    CLOUDY    41  35  79 SW16      29.67R
$$

WIZ056-057-062-063-064-067-068-272300-
SOUTH CENTRAL WISCONSIN

CITY           SKY/WX    TMP DP  RH WIND       PRES   REMARKS
REEDSBURG      CLOUDY    40  35  80 W10G18    29.62R WCI  34
BARABOO/DELLS  CLOUDY    40  34  77 W13G20    29.61R WCI  33
LONE ROCK      CLOUDY    43  33  68 W12       29.65R
MINERAL POINT  CLOUDY    41  34  75 W15G21    29.65R
MADISON        CLOUDY    43  34  70 W13       29.63R
MIDDLETON      CLOUDY    43  35  74 W12G20    29.64R
WATERTOWN      CLOUDY    43  40  90 SW13G20   29.62S
MONROE         CLOUDY    41  32  70 W18G28    29.66R
JANESVILLE     CLOUDY    45  39  81 SW14G22     N/A
$$

WIZ051-052-058>065-066-070>072-272300-
SOUTHEAST WISCONSIN

CITY           SKY/WX    TMP DP  RH WIND       PRES   REMARKS
MILWAUKEE      CLOUDY    46  37  71 SW16G23   29.64R
WAUKESHA       CLOUDY    41  37  87 SW12G18   29.64R
MILWAUKEE/TIMM CLOUDY    43  36  75 SW9G18    29.64R
RACINE         LGT RAIN  44  37  76 SW12G21   29.67S
KENOSHA        LGT RAIN  43  37  79 SW18G25   29.66R
FOND DU LAC    CLOUDY    42  33  70 W9        29.61R
SHEBOYGAN      CLOUDY    42  37  82 W14       29.61R
WEST BEND      CLOUDY    41  36  81 SW7       29.62R
JUNEAU         CLOUDY    42  37  81 SW16      29.63R
$$

LSZ147-162-272300-
LAKE SUPERIOR

STATION/POSITION TIME  TEMP    WIND        PRES    WAVE
                       AIR SEA DIR/SP/G            HT/PER
                 (UTC) (F)     (DEG/KT/KT) (MB)    (FT/S)
DEVILS ISLAND    2200   30     280/ 16/ 20 1000.7R
PORT WING        2140   31     270/ 12/ 17 1001.4R
SAXON HARBOR     2130   30     240/  6/ 11 1000.7R
$$

LMZ867-665-643>646-272300-
LAKE MICHIGAN

STATION/POSITION TIME  TEMP    WIND        PRES    WAVE
                       AIR SEA DIR/SP/G            HT/PER
                 (UTC) (F)     (DEG/KT/KT) (MB)    (FT/S)
CHAMBERS ISLAND  2140   36     240/  9/ 18 1000.0R
N MID LAKE BUOY  2150   38 37  220/ 19/ 23  999.9R   3/ 5
NORTHPORT PIER   2140   37     270/  3/ 13 1000.0R
SISTER BAY       2021   40     270/ 15/ 17   N/A
KEWAUNEE LAKESHO 2142   40     260/ 13/ 20 1001.3R
SHEBOYGAN LAKESH 2200   42     240/ 16/ 21 1003.2R
PORT WASHINGTON  2130   45     240/  7/ 16 1004.4R
MILWAUKEE LAKESH 2150   44     220/ 13/ 15   N/A
S MID LAKE BUOY  2150   43 41  250/ 14/ 16 1005.4R   3/ 5
KENOSHA   LAKESH 2200   44     240/ 13/ 22 1005.4
$$

TC  - TEMPERATURE IN CELSIUS
VSB - VISIBILITY IN STATUTE MILES
WCI - WIND CHILL INDEX
HX  - HEAT INDEX




USA.gov is the U.S. government's official web portal to all federal, state and local government web resources and services.